This is the latest recevied weather packets stored in our database for station/object N0QV. If no packets are shown the sender has not sent any weather packets the latest 10 day(s).
| Time | Temp. | Humidity | Pressure | Rain* | Wind** | Luminosity | Snow |
|---|---|---|---|---|---|---|---|
| 1778003621 | 10° C | 40% | 1012.3 hPa | 0 mm | - | 390 W/m² | - |
| 1778003317 | 10° C | 39% | 1012.2 hPa | 0 mm | - | 327 W/m² | - |
| 1778003015 | 10° C | 39% | 1012.4 hPa | 0 mm | - | 298 W/m² | - |
| 1778002710 | 10° C | 39% | 1012.3 hPa | 0 mm | - | 256 W/m² | - |
| 1778002407 | 10° C | 39% | 1012.3 hPa | 0 mm | - | 294 W/m² | - |
| 1778002105 | 9.44° C | 39% | 1012.3 hPa | 0 mm | - | 238 W/m² | - |
| 1778001802 | 9.44° C | 39% | 1012.4 hPa | 0 mm | - | 296 W/m² | - |
| 1778001501 | 9.44° C | 39% | 1012.2 hPa | 0 mm | - | 184 W/m² | - |
| 1778001199 | 10° C | 40% | 1011.8 hPa | 0 mm | - | 168 W/m² | - |
| 1778000895 | 10° C | 39% | 1012.2 hPa | 0 mm | - | 225 W/m² | - |
| 1778000592 | 10° C | 38% | 1012.3 hPa | 0 mm | - | 335 W/m² | - |
| 1778000288 | 10° C | 40% | 1012 hPa | 0 mm | - | 332 W/m² | - |
| 1777999983 | 10° C | 43% | 1012.2 hPa | 0 mm | - | 271 W/m² | - |
| 1777999679 | 9.44° C | 42% | 1012.3 hPa | 0 mm | - | 276 W/m² | - |
| 1777999376 | 8.89° C | 43% | 1012.1 hPa | 0 mm | - | 173 W/m² | - |
| 1777999075 | 8.89° C | 43% | 1012.1 hPa | 0 mm | - | 135 W/m² | - |
| 1777998773 | 8.89° C | 44% | 1012.1 hPa | 0 mm | - | 139 W/m² | - |
| 1777998470 | 9.44° C | 43% | 1012.2 hPa | 0 mm | - | 176 W/m² | - |
| 1777998167 | 10° C | 44% | 1012 hPa | 0 mm | - | 177 W/m² | - |
| 1777997864 | 10° C | 42% | 1012.1 hPa | 0 mm | - | 943 W/m² | - |
| 1777997561 | 9.44° C | 43% | 1012.3 hPa | 0 mm | - | 624 W/m² | - |
| 1777997259 | 10.56° C | 42% | 1012.2 hPa | 0 mm | - | 912 W/m² | - |
| 1777996956 | 10.56° C | 41% | 1012.3 hPa | 0 mm | - | 865 W/m² | - |
| 1777996652 | 10° C | 44% | 1012.2 hPa | 0 mm | - | 707 W/m² | - |
| 1777996349 | 11.11° C | 40% | 1012.2 hPa | 0 mm | - | 241 W/m² | - |
* Rain latest hour (hover to see other rain measurements)
** Current wind speed in m/s (hover to see current wind gust speed)